Volver al catálogo

IRIDIUM 45

ActivoComunicacionesPO
NORAD 25104·PAYLOAD·🇺🇸 United States

Lanzado Dec 20, 1997 desde Vandenberg Space Force Base

Loading…

Próximos Pases (próximas 24 horas)

TLE

ActualizadoSource: Space-Track

Época: Sep 14, 2026, 01:16 UTC

1 25104U 97082A   26257.05310437  .00037463  00000-0  67428-3 0  9996
2 25104  86.3543 183.2719 0073366  42.8943 317.8004 15.46623818521622

Sigue IRIDIUM 45 en tiempo real con AllMySat

Download on the App Store